This is the latest recevied weather packets stored in our database for station/object PU5FJO-13. If no packets are shown the sender has not sent any weather packets the latest 10 day(s).
| Time | Temp. | Humidity | Pressure | Rain* | Wind** | Luminosity | Snow |
|---|---|---|---|---|---|---|---|
| 1777974373 | 18.89° C | 82% | 1018 hPa | - | - | - | - |
| 1777973773 | 19.44° C | 81% | 1017.9 hPa | - | - | - | - |
| 1777973173 | 18.89° C | 83% | 1017.7 hPa | - | - | - | - |
| 1777972573 | 18.89° C | 82% | 1017.7 hPa | - | - | - | - |
| 1777971973 | 19.44° C | 82% | 1017.5 hPa | - | - | - | - |
| 1777971373 | 19.44° C | 81% | 1017.3 hPa | - | - | - | - |
| 1777970773 | 19.44° C | 82% | 1017.2 hPa | - | - | - | - |
| 1777970173 | 20° C | 80% | 1017.1 hPa | - | - | - | - |
| 1777969573 | 19.44° C | 81% | 1017 hPa | - | - | - | - |
| 1777968973 | 20° C | 81% | 1017 hPa | - | - | - | - |
| 1777968373 | 19.44° C | 81% | 1017 hPa | - | - | - | - |
| 1777967773 | 20° C | 80% | 1017.1 hPa | - | - | - | - |
| 1777967173 | 20° C | 78% | 1017.1 hPa | - | - | - | - |
| 1777966573 | 20° C | 80% | 1017 hPa | - | - | - | - |
| 1777965973 | 20° C | 80% | 1017.2 hPa | - | - | - | - |
| 1777965373 | 20° C | 80% | 1017.2 hPa | - | - | - | - |
| 1777964773 | 20° C | 81% | 1017.2 hPa | - | - | - | - |
| 1777964173 | 20° C | 80% | 1017.1 hPa | - | - | - | - |
| 1777963573 | 20° C | 79% | 1017.2 hPa | - | - | - | - |
| 1777962973 | 20° C | 82% | 1017.2 hPa | - | - | - | - |
| 1777962373 | 20° C | 81% | 1017.4 hPa | - | - | - | - |
| 1777961773 | 20° C | 82% | 1017.4 hPa | - | - | - | - |
| 1777961173 | 19.44° C | 83% | 1017.4 hPa | - | - | - | - |
| 1777960573 | 19.44° C | 84% | 1017.7 hPa | - | - | - | - |
| 1777959973 | 20° C | 82% | 1018.1 hPa | - | - | - | - |
* Rain since midnight (hover to see other rain measurements)
** Current wind speed in m/s (hover to see current wind gust speed)